Time,TemperatureF,DewpointF,PressureIn,WindDirection,WindDirectionDegrees,WindSpeedMPH,WindSpeedGustMPH,Humidity,HourlyPrecipIn,Conditions,Clouds,dailyrainin,SoftwareType,DateUTC
2013-06-30 00:14:00,58.3,56.9,29.85,South,190,7.0,10.0,95,0.00,CLR,,0.00,WeatherDisplay:10.37,2013-06-30 07:14:00,
2013-06-30 00:29:00,58.1,56.7,29.85,South,189,7.0,10.0,95,0.00,CLR,,0.00,WeatherDisplay:10.37,2013-06-30 07:29:00,
2013-06-30 00:44:00,58.1,57.0,29.83,South,190,7.0,10.0,96,0.00,CLR,,0.00,WeatherDisplay:10.37,2013-06-30 07:44:00,
2013-06-30 00:59:00,57.9,56.8,29.83,South,188,7.0,10.0,96,0.00,CLR,,0.00,WeatherDisplay:10.37,2013-06-30 07:59:00,
2013-06-30 01:14:00,57.7,56.6,29.83,SSW,194,8.0,10.0,96,0.00,CLR,,0.00,WeatherDisplay:10.37,2013-06-30 08:14:00,
2013-06-30 01:44:00,57.6,56.7,29.83,SSW,198,6.0,11.0,97,0.00,CLR,,0.00,WeatherDisplay:10.37,2013-06-30 08:44:00,
2013-06-30 01:59:00,57.6,56.7,29.83,SSW,193,7.0,10.0,97,0.00,CLR,,0.00,WeatherDisplay:10.37,2013-06-30 08:59:00,
2013-06-30 02:29:00,57.2,56.4,29.83,SSW,203,5.0,9.0,97,0.00,CLR,,0.00,WeatherDisplay:10.37,2013-06-30 09:29:00,
2013-06-30 02:44:00,57.2,56.4,29.83,SSW,199,6.0,8.0,97,0.00,CLR,,0.00,WeatherDisplay:10.37,2013-06-30 09:44:00,
2013-06-30 02:59:00,57.0,56.5,29.83,SSW,198,6.0,8.0,98,0.00,CLR,,0.00,WeatherDisplay:10.37,2013-06-30 09:59:00,
2013-06-30 03:14:00,57.0,56.4,29.83,SSW,199,5.0,8.0,98,0.00,CLR,,0.00,WeatherDisplay:10.37,2013-06-30 10:14:00,
2013-06-30 03:29:00,57.0,56.5,29.83,SW,217,5.0,8.0,98,0.00,CLR,,0.00,WeatherDisplay:10.37,2013-06-30 10:29:00,
2013-06-30 03:44:00,57.0,56.5,29.80,SSW,211,6.0,10.0,98,0.00,CLR,,0.00,WeatherDisplay:10.37,2013-06-30 10:44:00,
2013-06-30 03:59:00,56.8,56.3,29.83,SSW,211,5.0,8.0,98,0.00,CLR,,0.00,WeatherDisplay:10.37,2013-06-30 10:59:00,
2013-06-30 04:14:00,56.7,56.1,29.83,SSW,201,5.0,7.0,98,0.00,CLR,,0.00,WeatherDisplay:10.37,2013-06-30 11:14:00,
2013-06-30 04:29:00,56.7,56.1,29.80,SSW,202,5.0,10.0,98,0.00,CLR,,0.00,WeatherDisplay:10.37,2013-06-30 11:29:00,
2013-06-30 05:14:00,56.7,56.1,29.80,South,174,6.0,9.0,98,0.00,CLR,,0.00,WeatherDisplay:10.37,2013-06-30 12:14:00,
2013-06-30 05:29:00,56.5,55.9,29.80,SSE,167,5.0,9.0,98,0.00,CLR,,0.00,WeatherDisplay:10.37,2013-06-30 12:29:00,
2013-06-30 05:44:00,56.3,55.7,29.83,SSE,151,6.0,7.0,98,0.00,CLR,,0.00,WeatherDisplay:10.37,2013-06-30 12:44:00,
2013-06-30 05:59:00,56.3,55.7,29.80,SSE,151,6.0,9.0,98,0.00,CLR,,0.00,WeatherDisplay:10.37,2013-06-30 12:59:00,
2013-06-30 06:14:00,56.5,55.9,29.83,SSE,148,5.0,8.0,98,0.00,CLR,,0.00,WeatherDisplay:10.37,2013-06-30 13:14:00,
2013-06-30 06:29:00,56.8,56.3,29.83,SSE,147,5.0,9.0,98,0.00,CLR,,0.00,WeatherDisplay:10.37,2013-06-30 13:29:00,
2013-06-30 06:44:00,57.9,57.3,29.83,SSE,157,7.0,8.0,98,0.00,CLR,,0.00,WeatherDisplay:10.37,2013-06-30 13:44:00,
2013-06-30 06:59:00,60.4,59.0,29.83,South,182,6.0,9.0,95,0.00,CLR,,0.00,WeatherDisplay:10.37,2013-06-30 13:59:00,
2013-06-30 07:14:00,61.8,58.6,29.83,South,174,7.0,9.0,89,0.00,CLR,,0.00,WeatherDisplay:10.37,2013-06-30 14:14:00,
2013-06-30 07:29:00,62.3,57.7,29.83,South,185,7.0,10.0,85,0.00,CLR,,0.00,WeatherDisplay:10.37,2013-06-30 14:29:00,
2013-06-30 07:44:00,63.0,57.7,29.85,South,190,8.0,10.0,83,0.00,CLR,,0.00,WeatherDisplay:10.37,2013-06-30 14:44:00,
2013-06-30 07:59:00,64.4,57.7,29.83,South,188,7.0,10.0,79,0.00,CLR,,0.00,WeatherDisplay:10.37,2013-06-30 14:59:00,
2013-06-30 08:14:00,65.7,57.9,29.85,SSW,193,7.0,12.0,76,0.00,CLR,,0.00,WeatherDisplay:10.37,2013-06-30 15:14:00,
2013-06-30 08:29:00,66.4,57.1,29.85,SSW,197,7.0,9.0,72,0.00,CLR,,0.00,WeatherDisplay:10.37,2013-06-30 15:29:00,
2013-06-30 08:44:00,67.4,57.7,29.83,South,190,7.0,10.0,71,0.00,CLR,,0.00,WeatherDisplay:10.37,2013-06-30 15:44:00,
2013-06-30 08:59:00,68.2,57.6,29.83,SSW,195,6.0,9.0,69,0.00,CLR,,0.00,WeatherDisplay:10.37,2013-06-30 15:59:00,
2013-06-30 09:14:00,68.9,57.5,29.85,SSW,195,6.0,9.0,67,0.00,CLR,,0.00,WeatherDisplay:10.37,2013-06-30 16:14:00,
2013-06-30 09:29:00,70.0,57.7,29.85,SSW,193,7.0,10.0,65,0.00,CLR,,0.00,WeatherDisplay:10.37,2013-06-30 16:29:00,
2013-06-30 09:44:00,70.6,57.8,29.85,SSW,204,5.0,9.0,64,0.00,CLR,,0.00,WeatherDisplay:10.37,2013-06-30 16:44:00,
2013-06-30 09:59:00,70.7,57.5,29.85,SW,215,5.0,9.0,63,0.00,CLR,,0.00,WeatherDisplay:10.37,2013-06-30 16:59:00,
2013-06-30 10:14:00,70.2,57.1,29.85,SW,218,7.0,10.0,63,0.00,CLR,,0.00,WeatherDisplay:10.37,2013-06-30 17:14:00,
2013-06-30 10:29:00,70.1,57.3,29.85,SW,226,6.0,10.0,64,0.00,CLR,,0.00,WeatherDisplay:10.37,2013-06-30 17:29:00,
2013-06-30 10:44:00,68.1,56.7,29.85,WSW,240,9.0,12.0,67,0.00,CLR,,0.00,WeatherDisplay:10.37,2013-06-30 17:44:00,
2013-06-30 10:59:00,68.5,57.6,29.85,WSW,254,8.0,12.0,68,0.00,CLR,,0.00,WeatherDisplay:10.37,2013-06-30 17:59:00,
2013-06-30 11:14:00,67.8,57.3,29.85,WSW,245,8.0,10.0,69,0.00,CLR,,0.00,WeatherDisplay:10.37,2013-06-30 18:14:00,
2013-06-30 11:29:00,68.0,57.0,29.85,WSW,253,8.0,12.0,68,0.00,CLR,,0.00,WeatherDisplay:10.37,2013-06-30 18:29:00,
2013-06-30 11:44:00,68.4,57.4,29.85,WSW,257,8.0,12.0,68,0.00,CLR,,0.00,WeatherDisplay:10.37,2013-06-30 18:44:00,
2013-06-30 11:59:00,68.7,57.3,29.85,West,259,8.0,13.0,67,0.00,CLR,,0.00,WeatherDisplay:10.37,2013-06-30 18:59:00,
2013-06-30 12:14:00,68.2,56.9,29.85,WSW,251,10.0,14.0,67,0.00,CLR,,0.00,WeatherDisplay:10.37,2013-06-30 19:14:00,
2013-06-30 12:29:00,69.4,57.9,29.85,SW,221,8.0,14.0,67,0.00,CLR,,0.00,WeatherDisplay:10.37,2013-06-30 19:29:00,
2013-06-30 12:44:00,71.2,57.5,29.85,SW,219,8.0,10.0,62,0.00,CLR,,0.00,WeatherDisplay:10.37,2013-06-30 19:44:00,
2013-06-30 12:59:00,69.3,57.4,29.85,WSW,237,10.0,14.0,66,0.00,CLR,,0.00,WeatherDisplay:10.37,2013-06-30 19:59:00,
2013-06-30 13:14:00,68.4,57.8,29.85,WSW,245,10.0,15.0,69,0.00,CLR,,0.00,WeatherDisplay:10.37,2013-06-30 20:14:00,
2013-06-30 13:29:00,68.4,57.0,29.85,SW,227,12.0,14.0,67,0.00,CLR,,0.00,WeatherDisplay:10.37,2013-06-30 20:29:00,
2013-06-30 13:44:00,70.9,57.7,29.85,SW,228,9.0,14.0,63,0.00,CLR,,0.00,WeatherDisplay:10.37,2013-06-30 20:44:00,
2013-06-30 13:59:00,69.6,57.3,29.85,WSW,242,9.0,14.0,65,0.00,CLR,,0.00,WeatherDisplay:10.37,2013-06-30 20:59:00,
2013-06-30 14:14:00,68.5,57.1,29.83,WSW,247,10.0,13.0,67,0.00,CLR,,0.00,WeatherDisplay:10.37,2013-06-30 21:14:00,
2013-06-30 14:29:00,68.9,57.9,29.83,WSW,242,10.0,14.0,68,0.00,CLR,,0.00,WeatherDisplay:10.37,2013-06-30 21:29:00,
2013-06-30 14:43:00,69.6,57.8,29.83,SW,228,9.0,13.0,66,0.00,CLR,,0.00,WeatherDisplay:10.37,2013-06-30 21:43:00,
2013-06-30 14:59:00,69.3,57.8,29.83,SW,235,10.0,13.0,67,0.00,CLR,,0.00,WeatherDisplay:10.37,2013-06-30 21:59:00,
2013-06-30 15:13:00,69.6,57.7,29.83,SW,234,9.0,13.0,66,0.00,CLR,,0.00,WeatherDisplay:10.37,2013-06-30 22:13:00,
2013-06-30 15:29:00,70.3,57.6,29.83,SW,220,9.0,14.0,64,0.00,CLR,,0.00,WeatherDisplay:10.37,2013-06-30 22:29:00,
2013-06-30 15:43:00,72.1,57.9,29.83,SW,214,7.0,13.0,61,0.00,CLR,,0.00,WeatherDisplay:10.37,2013-06-30 22:43:00,
2013-06-30 15:59:00,73.4,57.3,29.83,SSW,211,8.0,10.0,57,0.00,CLR,,0.00,WeatherDisplay:10.37,2013-06-30 22:59:00,
2013-06-30 16:13:00,74.1,57.9,29.83,SSW,210,7.0,10.0,57,0.00,CLR,,0.00,WeatherDisplay:10.37,2013-06-30 23:13:00,
2013-06-30 16:28:00,72.9,57.3,29.83,SSW,209,8.0,12.0,58,0.00,CLR,,0.00,WeatherDisplay:10.37,2013-06-30 23:28:00,
2013-06-30 16:43:00,71.9,57.3,29.83,SW,217,7.0,14.0,60,0.00,CLR,,0.00,WeatherDisplay:10.37,2013-06-30 23:43:00,
2013-06-30 16:59:00,72.6,57.5,29.80,SSW,211,7.0,13.0,59,0.00,CLR,,0.00,WeatherDisplay:10.37,2013-06-30 23:59:00,
2013-06-30 17:13:00,72.6,57.5,29.83,SW,216,8.0,12.0,59,0.00,CLR,,0.00,WeatherDisplay:10.37,2013-07-01 00:13:00,
2013-06-30 17:28:00,72.5,56.9,29.80,SSW,207,9.0,13.0,58,0.00,CLR,,0.00,WeatherDisplay:10.37,2013-07-01 00:28:00,
2013-06-30 17:43:00,71.9,57.3,29.80,SW,215,8.0,12.0,60,0.00,CLR,,0.00,WeatherDisplay:10.37,2013-07-01 00:43:00,
2013-06-30 17:59:00,70.8,57.1,29.80,SW,231,9.0,13.0,62,0.00,CLR,,0.00,WeatherDisplay:10.37,2013-07-01 00:59:00,
2013-06-30 18:13:00,71.2,57.5,29.80,SSW,211,7.0,12.0,62,0.00,CLR,,0.00,WeatherDisplay:10.37,2013-07-01 01:13:00,
2013-06-30 18:28:00,70.9,57.2,29.80,SW,228,9.0,12.0,62,0.00,CLR,,0.00,WeatherDisplay:10.37,2013-07-01 01:28:00,
2013-06-30 18:43:00,68.6,57.2,29.80,SW,232,9.0,13.0,67,0.00,CLR,,0.00,WeatherDisplay:10.37,2013-07-01 01:43:00,
2013-06-30 18:58:00,67.5,57.4,29.80,WSW,239,9.0,13.0,70,0.00,CLR,,0.00,WeatherDisplay:10.37,2013-07-01 01:58:00,
2013-06-30 19:13:00,66.9,57.2,29.77,SW,235,9.0,14.0,71,0.00,CLR,,0.00,WeatherDisplay:10.37,2013-07-01 02:13:00,
2013-06-30 19:28:00,66.4,57.1,29.77,WSW,237,8.0,13.0,72,0.00,CLR,,0.00,WeatherDisplay:10.37,2013-07-01 02:28:00,
2013-06-30 19:43:00,65.1,57.0,29.77,SW,227,10.0,13.0,75,0.00,CLR,,0.00,WeatherDisplay:10.37,2013-07-01 02:43:00,
2013-06-30 19:58:00,64.1,57.1,29.77,SW,235,9.0,13.0,78,0.00,CLR,,0.00,WeatherDisplay:10.37,2013-07-01 02:58:00,
2013-06-30 20:13:00,63.1,56.9,29.80,SW,228,8.0,13.0,80,0.00,CLR,,0.00,WeatherDisplay:10.37,2013-07-01 03:13:00,
2013-06-30 20:28:00,61.3,56.7,29.77,WSW,242,12.0,14.0,85,0.00,CLR,,0.00,WeatherDisplay:10.37,2013-07-01 03:28:00,
2013-06-30 20:43:00,60.1,56.8,29.80,WSW,257,9.0,14.0,89,0.00,CLR,,0.00,WeatherDisplay:10.37,2013-07-01 03:43:00,
2013-06-30 20:58:00,59.5,56.9,29.80,WSW,250,13.0,15.0,91,0.00,CLR,,0.00,WeatherDisplay:10.37,2013-07-01 03:58:00,
2013-06-30 21:13:00,59.4,57.0,29.80,WSW,248,10.0,14.0,92,0.00,CLR,,0.00,WeatherDisplay:10.37,2013-07-01 04:13:00,
2013-06-30 21:28:00,59.2,56.9,29.80,WSW,246,10.0,14.0,92,0.00,CLR,,0.00,WeatherDisplay:10.37,2013-07-01 04:28:00,
2013-06-30 21:43:00,58.8,56.8,29.80,SW,234,12.0,15.0,93,0.00,CLR,,0.00,WeatherDisplay:10.37,2013-07-01 04:43:00,
2013-06-30 21:58:00,58.8,56.8,29.80,SW,236,12.0,15.0,93,0.00,CLR,,0.00,WeatherDisplay:10.37,2013-07-01 04:58:00,
2013-06-30 22:13:00,58.6,56.6,29.80,WSW,244,9.0,14.0,93,0.00,CLR,,0.00,WeatherDisplay:10.37,2013-07-01 05:13:00,
2013-06-30 22:43:00,58.3,56.6,29.80,SW,226,7.0,14.0,94,0.00,CLR,,0.00,WeatherDisplay:10.37,2013-07-01 05:43:00,
2013-06-30 22:59:00,58.1,57.0,29.80,SW,224,9.0,14.0,96,0.00,CLR,,0.00,WeatherDisplay:10.37,2013-07-01 05:59:00,
2013-06-30 23:13:00,57.9,56.8,29.80,SSW,207,7.0,13.0,96,0.00,CLR,,0.00,WeatherDisplay:10.37,2013-07-01 06:13:00,
2013-06-30 23:28:00,57.6,56.7,29.80,WSW,248,7.0,12.0,97,0.00,CLR,,0.00,WeatherDisplay:10.37,2013-07-01 06:28:00,
2013-06-30 23:43:00,57.6,56.7,29.80,WNW,295,14.0,15.0,97,0.00,CLR,,0.00,WeatherDisplay:10.37,2013-07-01 06:43:00,
2013-06-30 23:58:00,57.3,56.7,29.80,WNW,287,10.0,14.0,98,0.00,CLR,,0.00,WeatherDisplay:10.37,2013-07-01 06:58:00,